CW1706 Weather Reports


time (UTC)temp
F
wind
direction
speed
knots
gust
knots
rain 1hr
in
rain 24hr
in
rain mn
in
humidity
%
barometer
mb
20260505010337 64 181 3.5 6.1 0.00 0.00 0.00 72 1011.5
20260505003341 65 144 2.6 8.7 0.00 0.00 0.00 69 1011.2
20260505000325 66 360 4.3 7.8 0.00 0.00 0.00 62 1011.2
20260504233335 69 176 3.5 7.8 0.00 0.00 0.00 59 1011.1
20260504230403 71 202 4.3 10.4 0.00 0.00 0.00 50 1011.0
20260504223322 72 214 5.2 12.2 0.00 0.00 0.00 49 1010.9
20260504220332 73 147 4.3 8.7 0.00 0.00 0.00 44 1011.0
20260504213342 73 192 6.1 12.2 0.00 0.00 0.00 40 1011.2
20260504210323 73 159 6.1 13.9 0.00 0.00 0.00 39 1011.2
20260504203329 73 169 6.1 11.3 0.00 0.00 0.00 41 1011.4
20260504200334 74 215 5.2 12.2 0.00 0.00 0.00 44 1011.7
20260504193343 74 200 5.2 12.2 0.00 0.00 0.00 42 1011.9
20260504190322 75 230 5.2 11.3 0.00 0.00 0.00 36 1012.2
20260504183323 74 291 5.2 12.2 0.00 0.00 0.00 34 1012.5
20260504180325 74 215 2.6 7.8 0.00 0.00 0.00 37 1012.9
20260504173356 74 205 4.3 8.7 0.00 0.00 0.00 38 1013.2
20260504170402 72 298 2.6 5.2 0.00 0.00 0.00 36 1013.5
20260504160328 69 236 4.3 7.8 0.00 0.00 0.00 37 1014.2
20260504150320 68 223 3.5 7.0 0.00 0.00 0.00 49 1014.7
20260504140338 66 157 3.5 6.1 0.00 0.00 0.00 52 1014.7
20260504130324 61 360 5.2 11.3 0.00 0.00 0.00 61 1015.3
20260504110338 54 205 4.3 7.0 0.00 0.00 0.00 83 1016.1
20260504100322 54 188 3.5 8.7 0.00 0.00 0.00 82 1015.8
20260504080331 53 202 3.5 7.8 0.00 0.00 0.00 85 1016.3
20260504070327 53 181 4.3 8.7 0.00 0.00 0.00 83 1016.4
20260504050334 46 189 3.5 4.3 0.00 0.00 0.00 80 1016.5
20260504043343 45 182 2.6 5.2 0.00 0.00 0.00 80 1016.4
20260504040325 45 193 2.6 4.3 0.00 0.00 0.00 78 1016.2
20260504033324 45 159 0.9 1.7 0.00 0.00 0.00 76 1015.9
20260504030338 45 132 0.9 2.6 0.00 0.00 0.00 75 1015.9
20260504023319 45 217 0.0 1.7 0.00 0.00 0.00 73 1015.8
20260504020343 46 217 0.0 2.6 0.00 0.00 0.00 71 1015.8
20260504013323 48 217 0.9 1.7 0.00 0.00 0.00 68 1015.5